Theta_e
330 330 330 330 330 330 329 328 327 327 326 326 325 324 323 322 322 321 320 319 316 314 313 313 313 313 312 311 309 309 308 308 307 307 307 307 308 307 307 306 306 305
329 330 330 330 330 329 328 328 327 326 325 324 323 323 322 321 321 320 319 317 315 314 313 313 312 310 309 308 308 307 307 306 305 305 304 303 304 302 300 299 297 296
329 329 330 330 330 328 327 326 325 325 324 323 322 322 321 319 318 318 317 316 315 314 313 313 312 310 308 308 307 305 304 303 303 302 301 299 298 296 295 293 293 292
328 329 329 329 329 327 326 325 324 323 322 322 321 320 318 317 317 317 317 316 314 313 313 312 312 310 309 308 306 303 302 300 299 298 296 295 294 293 292 291 291 291
327 327 327 327 327 326 325 324 323 322 321 321 320 318 317 317 316 316 316 315 313 312 312 311 311 310 309 306 303 300 298 295 294 294 293 292 292 291 291 291 290 290
325 326 325 325 325 324 324 323 322 321 320 320 318 317 316 316 316 315 314 313 312 311 310 310 310 308 305 302 298 295 294 292 292 292 292 292 291 291 291 290 290 290
324 324 324 324 323 323 322 322 321 320 319 318 317 316 316 315 314 313 312 311 310 309 309 308 306 302 299 296 294 292 292 291 291 291 292 292 291 291 290 290 289 289
323 322 322 322 322 321 321 320 319 319 318 317 316 315 314 313 312 310 309 309 308 307 304 301 298 296 294 292 292 292 292 291 291 291 291 291 290 290 289 289 289 288
321 321 321 320 320 319 319 318 317 317 317 316 315 314 312 310 309 308 307 305 303 300 297 295 293 292 292 291 292 292 292 291 291 291 291 290 289 289 288 288 288 287
319 319 319 319 319 318 317 317 316 315 315 314 313 311 309 308 307 305 303 300 297 294 293 292 292 291 291 291 291 291 291 291 291 290 290 289 289 288 288 287 287 287
318 317 317 317 317 316 316 315 314 314 313 312 310 307 306 306 303 300 297 295 293 292 292 291 291 291 291 291 291 291 291 290 290 289 289 288 288 287 287 287 287 287
316 315 315 315 315 314 314 313 312 312 310 308 306 305 304 301 297 295 293 292 292 292 291 291 291 291 291 291 290 290 290 289 289 289 288 288 287 287 287 287 286 286
314 314 313 313 313 312 311 311 310 309 307 305 303 301 298 295 293 293 292 292 291 291 291 291 290 290 290 290 289 289 289 289 288 288 288 287 287 287 286 286 286 286
312 312 312 312 311 310 309 308 307 305 304 302 299 296 294 293 292 292 291 291 291 291 291 290 290 290 289 289 289 288 288 288 288 288 287 287 287 286 286 286 285 285
311 310 310 309 309 308 307 305 304 302 300 297 295 293 292 292 291 291 291 290 290 290 290 290 289 289 289 288 288 288 288 288 287 287 287 287 286 286 286 285 285 285
309 308 307 307 307 306 304 302 300 298 296 294 293 292 291 291 291 291 290 290 290 289 289 289 289 289 288 288 288 288 287 287 287 287 287 286 286 286 285 285 285 285
307 306 305 305 304 303 301 299 297 295 293 292 291 291 290 290 290 290 290 289 289 289 289 288 288 288 288 287 287 287 287 287 287 286 286 286 285 285 285 285 284 284
305 304 304 303 302 300 298 295 294 293 292 291 290 290 290 290 289 289 289 289 289 288 288 288 287 287 287 287 287 287 287 286 286 286 285 285 285 285 284 284 284 284
303 302 302 301 299 297 295 293 293 292 291 291 290 290 290 289 289 289 288 288 288 288 287 287 287 287 286 286 287 287 286 286 286 285 285 285 284 284 283 283 283 283
300 300 299 298 296 294 293 292 292 291 290 290 290 289 289 289 288 288 288 288 287 287 287 287 286 286 286 286 286 286 286 286 285 285 284 284 283 283 282 282 282 281
298 297 296 295 293 292 292 291 290 290 290 290 289 289 289 288 288 288 287 287 287 287 287 286 286 286 286 286 286 286 286 285 284 284 283 283 282 282 281 281 281 281
295 294 293 293 292 291 290 290 290 290 289 289 289 288 288 288 288 288 287 287 287 286 286 286 286 285 286 286 285 286 285 284 284 283 282 282 282 281 281 281 281 280
294 293 292 291 290 290 290 289 289 290 289 289 289 288 288 288 287 287 287 287 286 286 286 286 286 285 285 285 285 285 284 283 283 282 282 282 281 280 280 280 280 279
292 292 291 290 290 289 289 289 289 289 289 289 289 288 288 287 287 287 286 286 286 286 286 286 285 285 285 284 284 284 284 283 282 282 281 281 280 279 279 279 279 278
291 290 290 290 289 289 289 289 289 289 289 288 288 288 287 287 286 286 286 285 286 286 285 285 285 285 284 284 284 283 283 283 282 282 281 280 279 278 278 278 278 278
290 290 289 289 289 289 289 289 289 288 288 287 287 287 287 286 286 286 286 285 285 285 285 285 284 284 284 283 283 282 282 282 281 281 280 279 278 278 278 278 278 278
Wind_Speed
34 33 32 30 29 27 27 26 24 24 23 23 22 21 20 18 17 15 14 12 11 9 8 7 7 9 10 9 8 8 7 6 5 4 4 5 5 4 3 2 1 0
32 31 30 29 28 27 26 26 25 24 23 22 21 20 20 18 17 17 15 13 12 10 9 8 7 7 10 10 8 8 7 8 8 7 7 8 7 7 7 7 6 6
30 30 29 28 28 27 26 25 24 23 22 21 20 20 19 18 18 17 15 13 12 11 10 10 9 8 10 10 9 9 10 11 11 10 9 11 10 10 10 9 8 7
29 28 28 27 27 27 26 25 24 23 22 21 20 19 18 18 17 17 16 14 13 12 12 12 11 10 10 10 10 12 12 12 12 11 11 12 11 10 10 9 7 6
27 27 27 27 26 27 26 25 25 23 22 21 20 19 18 18 18 17 16 15 14 14 14 13 13 11 11 11 11 12 13 13 13 12 11 12 11 10 9 7 6 4
26 26 26 26 26 27 26 25 25 24 23 22 21 20 19 18 18 17 17 17 16 16 15 15 14 13 12 12 13 14 14 14 14 12 11 11 10 8 7 6 5 4
26 26 26 26 26 26 26 25 24 24 23 23 22 21 20 19 18 18 18 18 17 16 16 16 16 15 15 15 16 16 15 14 13 11 10 9 8 7 5 4 4 3
26 26 26 26 26 26 25 24 24 24 24 23 22 21 20 20 20 20 19 19 18 18 18 18 18 18 17 16 16 15 15 13 11 10 9 8 7 5 4 4 3 4
26 26 27 27 26 25 24 24 24 24 24 23 22 21 20 20 21 21 20 20 21 20 20 20 19 19 18 16 15 14 13 12 10 9 8 7 5 5 4 4 5 6
26 26 26 26 26 25 25 25 25 25 24 22 21 22 22 22 22 22 22 23 23 22 22 21 19 19 17 15 14 13 12 11 9 8 7 5 5 4 4 5 7 8
25 25 25 25 25 25 26 26 26 25 23 22 23 24 24 24 24 24 24 24 23 23 22 20 19 17 16 15 13 12 11 10 9 7 6 5 4 4 5 6 7 9
25 25 25 26 26 27 26 26 25 24 24 24 26 27 27 27 26 25 25 24 23 22 21 20 18 16 15 14 12 11 10 9 8 7 5 4 3 4 5 6 7 8
26 26 27 27 27 27 26 26 25 25 26 27 28 29 30 29 28 27 25 24 23 22 21 19 18 16 14 13 11 10 9 8 7 5 3 3 3 3 4 6 7 7
27 27 27 27 27 27 26 27 27 28 29 30 30 31 31 30 29 28 26 25 23 22 21 19 17 15 13 12 11 9 8 7 5 3 2 2 2 4 5 5 7 8
28 27 27 27 27 28 28 28 30 31 32 32 32 31 31 29 29 28 26 25 24 22 20 18 16 15 13 11 10 8 7 5 3 1 1 2 3 4 5 6 7 9
28 27 28 28 29 30 31 31 32 33 33 33 33 32 31 30 29 27 26 25 24 22 20 18 16 14 12 10 9 7 5 3 1 1 2 4 5 5 6 7 8 9
29 29 29 30 31 32 34 34 35 35 35 34 33 32 31 30 29 27 25 24 22 21 19 17 15 13 12 10 8 6 4 2 0 2 3 4 5 6 7 8 9 10
31 32 32 33 34 35 36 36 36 36 36 35 35 33 32 30 29 27 25 23 21 20 18 17 15 13 11 9 7 5 3 1 1 2 3 4 5 6 7 8 9 10
34 35 36 37 38 38 38 38 38 37 37 36 35 34 32 31 29 26 25 22 20 19 18 16 15 13 10 8 6 4 2 1 2 3 3 4 5 5 7 8 9 10
36 38 39 39 40 39 39 39 39 38 37 36 35 34 32 30 28 26 24 22 20 19 18 16 14 12 9 7 5 3 2 1 2 3 3 3 4 5 6 8 9 10
38 39 39 39 40 40 40 40 39 38 37 36 34 33 31 30 28 26 24 22 20 19 17 15 13 10 8 6 4 3 2 2 2 3 2 3 4 4 6 8 8 9
38 38 38 39 40 39 39 39 38 37 37 35 34 32 30 28 26 25 24 22 20 18 16 15 12 9 8 6 4 3 2 2 2 2 2 3 4 5 7 8 8 9
38 39 39 40 40 40 39 39 38 37 36 35 34 32 29 28 26 24 23 21 20 17 15 13 12 9 7 5 3 3 2 2 2 2 3 4 5 6 8 9 8 8
39 40 40 41 41 40 40 39 38 38 36 34 34 32 30 28 26 24 22 19 18 16 14 12 11 9 7 5 3 3 3 1 2 3 4 5 7 7 8 8 8 8
38 39 39 40 41 40 39 39 38 37 35 33 33 32 30 28 26 24 22 19 17 15 13 12 10 8 7 5 3 3 3 2 2 4 5 6 8 8 8 8 8 9
37 38 38 39 40 39 38 38 37 36 34 33 31 30 29 27 25 23 21 19 16 14 12 11 10 8 7 5 4 2 2 3 3 5 5 7 8 9 9 8 8 8
Wind_Direction
225 224 224 224 225 226 224 218 214 212 212 211 212 211 211 211 213 217 220 219 213 201 185 177 183 192 191 184 176 172 175 174 163 159 172 178 178 174 173 170 160 152
223 223 222 222 222 222 219 215 212 211 211 211 212 212 212 214 215 217 215 207 199 191 181 171 166 164 157 149 152 159 157 145 131 120 109 105 103 98 94 89 83 79
220 219 218 218 218 215 210 208 208 208 208 208 209 211 212 212 209 205 203 202 197 189 181 176 173 163 149 143 143 140 133 125 116 110 103 97 93 89 85 82 78 71
215 215 214 214 213 209 204 201 201 202 204 204 205 207 206 201 197 195 197 199 196 188 181 179 178 169 154 148 143 132 125 120 113 109 106 100 95 91 84 78 72 63
210 209 208 207 205 202 200 199 199 199 200 202 202 200 197 192 190 193 195 194 192 188 182 179 177 171 161 153 144 133 125 119 114 112 110 103 98 93 86 78 71 58
201 200 199 199 198 197 197 197 199 200 200 200 197 193 191 191 193 196 196 192 189 186 181 177 173 166 158 150 138 130 125 120 118 117 110 103 98 92 87 78 65 43
193 193 193 193 193 194 196 196 197 198 197 196 193 190 192 195 198 197 194 189 183 179 174 169 164 154 147 144 137 130 127 123 121 118 108 101 97 90 84 72 55 33
189 189 189 189 189 189 192 193 193 194 193 192 190 191 196 198 195 189 184 180 174 169 163 157 152 146 142 141 138 133 130 126 122 116 107 102 98 90 83 67 37 17
185 185 184 186 187 188 191 192 192 191 191 192 192 193 193 191 186 179 173 169 163 158 154 150 146 143 142 143 140 136 132 127 122 115 109 104 99 89 68 43 24 9
183 182 183 185 187 189 189 188 188 188 189 193 193 189 184 180 176 170 165 161 156 153 150 149 147 145 145 144 141 137 133 127 120 116 111 102 90 71 41 19 9 360
185 185 186 187 187 187 186 185 186 186 189 191 188 181 174 170 166 163 160 157 154 153 151 149 148 148 148 146 142 138 132 126 121 116 110 97 74 42 21 4 357 352
187 187 188 188 187 185 184 184 185 186 186 184 179 172 166 164 161 159 159 157 154 153 152 150 149 150 150 146 142 138 131 126 123 119 111 93 58 23 8 351 346 348
187 187 187 186 185 184 184 184 183 183 180 176 172 167 163 161 160 159 159 158 156 155 154 153 153 152 151 146 141 137 131 128 128 124 114 84 40 2 353 344 339 346
187 187 187 186 185 183 182 181 179 178 174 170 168 165 162 161 161 160 160 159 158 158 156 156 156 154 151 147 142 138 136 136 139 132 110 56 22 348 340 342 340 346
186 186 186 185 184 181 179 178 175 172 170 167 166 164 162 162 162 162 162 160 159 159 158 157 158 155 151 149 146 145 148 148 146 131 40 355 351 345 336 337 344 350
186 186 184 183 181 179 176 174 171 169 168 166 165 164 163 163 164 164 164 163 161 160 159 158 158 156 152 153 153 153 156 153 149 329 343 339 333 337 335 338 351 358
186 184 182 181 179 177 175 172 171 169 167 166 165 165 165 165 165 165 164 165 163 160 161 159 157 157 155 157 160 160 165 169 145 332 334 333 330 335 340 345 354 359
185 183 181 180 178 176 174 172 171 169 167 167 167 166 166 166 166 166 164 165 164 162 161 160 158 159 158 160 167 166 172 201 332 334 329 329 334 339 345 352 355 355
185 182 180 180 178 176 175 172 171 170 169 170 169 168 168 167 166 166 164 165 166 164 163 160 158 158 159 164 174 179 185 244 316 322 324 328 338 348 350 355 357 349
184 182 180 179 177 176 175 173 173 172 171 171 170 169 169 168 167 166 165 166 169 168 164 160 158 158 163 171 179 191 222 275 309 318 330 339 350 1 357 358 357 347
183 181 180 178 177 176 175 174 174 172 171 171 171 170 170 169 168 168 168 169 170 170 165 159 158 161 167 178 190 204 249 290 308 322 346 9 10 5 358 1 359 352
183 181 180 179 177 176 175 175 174 173 172 172 171 171 170 170 170 171 172 172 171 170 168 161 159 166 171 179 201 217 250 286 314 350 7 10 10 4 2 8 7 359
184 183 181 180 178 178 176 176 175 174 174 174 173 171 171 171 173 172 173 175 172 170 170 165 161 168 174 180 206 230 248 278 321 358 6 2 7 10 8 12 12 1
187 185 183 181 179 179 178 177 177 176 175 176 176 175 174 174 175 173 171 173 173 170 171 171 167 168 172 176 199 238 261 280 327 352 7 6 6 11 11 11 10 2
188 187 185 182 181 181 180 178 178 177 177 177 178 178 175 174 174 174 171 170 172 172 170 172 172 169 171 175 184 227 279 306 327 351 8 7 4 6 6 5 4 1
190 188 187 184 182 182 181 180 179 178 178 177 178 178 175 173 173 174 172 170 172 173 172 173 175 173 172 174 177 201 289 310 328 360 10 3 2 2 359 359 357 353